Date String (YYYY-MM-DD hh:mm:ss) UTC,Instrument flags,absolute air pressure of the measurement (hPa),sample flow rate (lpm),inlet stack bypass flow (lpm),air temperature of the measurement (°C),ambient temperature measured by the external sensor (°C),aerosol sample conditioner tube jacket temperature (°C),OPC LED temperature (°C),internal box temperature (°C),relative humidity of the measurement (%),span deviation,mass concentration of particles derived from Lorenz-Mie calculation of OPC scattering (μg/m³),mass concentration of particles derived from Lorenz-Mie calculation of OPC scattering (μg/m³),mass concentration of particles derived from Lorenz-Mie calculation of OPC scattering (μg/m³)
DateTimeUTC,F1_M11,P_M11,Q1_M11,Q2_M11,T1_M11,T2_M11,T3_M11,T4_M11,T5_M11,U1_M11,ZSPAN_M11,X2_M11,X0_M11,X1_M11
2023-07-10 05:00:00,SystemResetWarning,0832.5,5.00,000.00,030.5,026.4,000.0,038.6,031.3,33.6,-000.6,0008.42,0012.50,0007.85
2023-07-10 05:01:00,SystemResetWarning,0832.5,5.00,000.00,030.4,025.6,000.0,038.5,031.1,33.8,-000.6,0008.34,0012.80,0007.84
2023-07-10 05:02:00,SystemResetWarning,0832.5,5.01,000.00,030.3,025.6,000.0,038.5,030.8,34.0,0000.0,0008.37,0012.84,0007.84
2023-07-10 05:03:00,SystemResetWarning,0832.5,5.01,000.00,030.2,025.9,000.0,038.5,030.8,34.4,0000.0,0008.37,0012.65,0007.84
2023-07-10 05:04:00,SystemResetWarning,0832.5,5.00,000.00,030.1,026.3,000.0,038.6,030.8,34.4,0000.0,0008.39,0012.45,0007.83
2023-07-10 05:05:00,SystemResetWarning,0832.5,5.00,000.00,030.1,026.7,000.0,038.5,030.9,34.4,0000.0,0008.38,0013.03,0007.82
2023-07-10 05:06:00,SystemResetWarning,0832.5,5.01,000.00,030.1,027.0,000.0,038.5,031.0,34.5,0000.0,0008.38,0013.85,0007.81
2023-07-10 05:07:00,SystemResetWarning,0832.5,5.01,000.00,030.1,027.3,000.0,038.5,031.0,34.5,0000.0,0008.35,0013.59,0007.83
2023-07-10 05:08:00,SystemResetWarning,0832.4,4.99,000.00,030.1,027.6,000.0,038.5,031.1,34.5,0000.0,0008.36,0013.53,0007.86
2023-07-10 05:09:00,SystemResetWarning,0832.5,4.99,000.00,030.1,027.8,000.0,038.5,031.1,34.4,0000.0,0008.43,0013.78,0007.87
2023-07-10 05:10:00,SystemResetWarning,0832.4,5.01,000.00,030.1,027.9,000.0,038.5,031.2,34.4,-000.8,0008.43,0013.75,0007.87
2023-07-10 05:11:00,SystemResetWarning,0832.4,5.00,000.00,030.1,028.1,000.0,038.5,031.2,34.3,-000.3,0008.42,0013.72,0007.88
2023-07-10 05:12:00,SystemResetWarning,0832.4,4.99,000.00,030.1,028.2,000.0,038.5,031.3,34.3,0000.0,0008.45,0013.34,0007.91
2023-07-10 05:13:00,SystemResetWarning,0832.4,4.99,000.00,030.1,028.3,000.0,038.5,031.3,34.3,0000.0,0008.49,0013.13,0007.91
2023-07-10 05:14:00,SystemResetWarning,0832.4,5.01,000.00,030.1,028.4,000.0,038.6,031.3,34.3,0000.0,0008.50,0013.45,0007.92
2023-07-10 05:15:00,SystemResetWarning,0832.3,5.01,000.00,030.2,028.1,000.0,038.5,031.3,34.1,0000.0,0008.50,0014.10,0007.93
2023-07-10 05:16:00,SystemResetWarning,0832.3,4.98,000.00,030.1,026.4,000.0,038.4,031.2,34.3,0000.0,0008.48,0013.79,0007.93
2023-07-10 05:17:00,SystemResetWarning,0832.3,5.00,000.00,030.1,025.5,000.0,038.3,031.0,34.3,0000.0,0008.52,0013.75,0007.95
2023-07-10 05:18:00,SystemResetWarning,0832.3,5.01,000.00,029.9,025.5,000.0,038.3,030.8,34.5,0000.0,0008.54,0013.39,0007.96
2023-07-10 05:19:00,SystemResetWarning,0832.3,5.01,000.00,029.8,025.8,000.0,038.3,030.7,34.8,0000.0,0008.53,0013.40,0007.94
2023-07-10 05:20:00,SystemResetWarning,0832.3,4.99,000.00,029.8,026.2,000.0,038.3,030.8,34.9,0000.0,0008.53,0013.37,0007.94
2023-07-10 05:21:00,SystemResetWarning,0832.3,5.00,000.00,029.7,026.6,000.0,038.3,030.8,34.8,0000.0,0008.55,0013.45,0007.95
2023-07-10 05:22:00,SystemResetWarning,0832.3,4.99,000.00,029.7,027.0,000.0,038.3,030.9,34.9,0000.0,0008.59,0013.60,0007.97
2023-07-10 05:23:00,SystemResetWarning,0832.3,5.02,000.00,029.8,027.2,000.0,038.3,031.0,34.8,0000.0,0008.64,0013.79,0007.99
2023-07-10 05:24:00,SystemResetWarning,0832.3,4.97,000.00,029.8,027.5,000.0,038.3,031.0,34.7,0000.0,0008.62,0013.74,0008.00
2023-07-10 05:25:00,SystemResetWarning,0832.3,5.01,000.00,029.8,027.7,000.0,038.3,031.1,34.6,-000.0,0008.67,0013.57,0008.02
2023-07-10 05:26:00,SystemResetWarning,0832.3,5.01,000.00,029.9,027.9,000.0,038.3,031.1,34.5,-000.3,0008.68,0013.00,0008.03
2023-07-10 05:27:00,SystemResetWarning,0832.3,5.00,000.00,029.9,028.0,000.0,038.3,031.2,34.5,0000.3,0008.73,0012.77,0008.06
2023-07-10 05:28:00,SystemResetWarning,0832.3,4.99,000.00,029.9,028.1,000.0,038.3,031.2,34.3,0000.4,0008.79,0012.15,0008.09
2023-07-10 05:29:00,SystemResetWarning,0832.3,5.02,000.00,029.9,028.2,000.0,038.3,031.2,34.2,0000.4,0008.82,0012.91,0008.11
2023-07-10 05:30:00,SystemResetWarning,0832.3,5.01,000.00,030.0,028.3,000.0,038.3,031.3,34.1,0000.4,0008.88,0013.02,0008.15
2023-07-10 05:31:00,SystemResetWarning,0832.3,4.99,000.00,030.0,028.0,000.0,038.3,031.3,34.0,0000.5,0008.89,0013.32,0008.18
2023-07-10 05:32:00,SystemResetWarning,0832.2,4.99,000.00,030.0,026.3,000.0,038.2,031.2,34.0,0000.6,0008.88,0013.37,0008.20
2023-07-10 05:33:00,SystemResetWarning,0832.2,5.02,000.00,029.9,025.5,000.0,038.1,031.0,34.0,0000.4,0008.86,0013.63,0008.20
2023-07-10 05:34:00,SystemResetWarning,0832.2,5.01,000.00,029.8,025.5,000.0,038.1,030.7,34.2,0000.5,0008.85,0013.50,0008.20
2023-07-10 05:35:00,SystemResetWarning,0832.2,5.00,000.00,029.7,025.8,000.0,038.1,030.6,34.4,0000.9,0008.85,0013.50,0008.20
2023-07-10 05:36:00,SystemResetWarning,0832.2,4.99,000.00,029.6,026.2,000.0,038.2,030.7,34.5,0000.2,0008.86,0013.65,0008.22
2023-07-10 05:37:00,SystemResetWarning,0832.2,5.00,000.00,029.6,026.6,000.0,038.2,030.7,34.5,0000.0,0008.86,0013.88,0008.21
2023-07-10 05:38:00,SystemResetWarning,0832.2,5.00,000.00,029.6,026.9,000.0,038.2,030.8,34.6,0000.0,0008.86,0014.13,0008.21
2023-07-10 05:39:00,SystemResetWarning,0832.2,5.00,000.00,029.6,027.2,000.0,038.1,030.9,34.5,-000.5,0008.83,0014.20,0008.21
2023-07-10 05:40:00,SystemResetWarning,0832.2,5.01,000.00,029.6,027.5,000.0,038.1,030.9,34.3,-000.5,0008.83,0013.37,0008.20
2023-07-10 05:41:00,SystemResetWarning,0832.2,4.99,000.00,029.6,027.6,000.0,038.1,031.0,34.3,-000.8,0008.82,0013.28,0008.20
2023-07-10 05:42:00,SystemResetWarning,0832.3,4.99,000.00,029.7,027.8,000.0,038.1,031.0,34.2,-000.6,0008.84,0013.16,0008.20
2023-07-10 05:43:00,SystemResetWarning,0832.2,5.01,000.00,029.7,028.0,000.0,038.2,031.1,34.2,-001.2,0008.84,0012.87,0008.20
2023-07-10 05:44:00,SystemResetWarning,0832.2,5.01,000.00,029.7,028.1,000.0,038.2,031.1,34.1,-001.6,0008.85,0012.50,0008.21
2023-07-10 05:45:00,SystemResetWarning,0832.2,5.00,000.00,029.7,028.2,000.0,038.2,031.1,34.0,-001.6,0008.86,0012.44,0008.22
2023-07-10 05:46:00,SystemResetWarning,0832.2,4.99,000.00,029.7,028.3,000.0,038.2,031.2,33.9,-002.1,0008.90,0012.56,0008.23
2023-07-10 05:47:00,SystemResetWarning,0832.2,5.01,000.00,029.8,028.3,000.0,038.2,031.2,34.0,-002.3,0008.88,0012.57,0008.22
2023-07-10 05:48:00,SystemResetWarning,0832.2,5.02,000.00,029.8,028.4,000.0,038.2,031.3,34.3,-001.4,0008.88,0012.45,0008.23
2023-07-10 05:49:00,SystemResetWarning,0832.2,4.98,000.00,029.8,027.5,000.0,038.1,031.2,33.8,-001.1,0008.87,0012.38,0008.24
2023-07-10 05:50:00,SystemResetWarning,0832.2,5.00,000.00,029.8,025.9,000.0,038.0,031.0,33.9,-000.9,0008.86,0012.08,0008.24
2023-07-10 05:51:00,SystemResetWarning,0832.1,5.02,000.00,029.7,025.4,000.0,038.0,030.8,33.8,-001.1,0008.86,0012.10,0008.24
2023-07-10 05:52:00,SystemResetWarning,0832.2,5.00,000.00,029.5,025.6,000.0,038.0,030.5,34.1,-000.9,0008.84,0012.10,0008.23
2023-07-10 05:53:00,SystemResetWarning,0832.1,5.00,000.00,029.5,026.0,000.0,038.0,030.5,34.3,-000.7,0008.75,0011.96,0008.18
2023-07-10 05:54:00,SystemResetWarning,0832.1,5.01,000.00,029.4,026.4,000.0,038.0,030.6,34.4,-000.1,0008.74,0012.02,0008.14
2023-07-10 05:55:00,SystemResetWarning,0832.1,5.00,000.00,029.4,026.7,000.0,038.0,030.7,34.4,0000.2,0008.71,0012.51,0008.10
2023-07-10 05:56:00,SystemResetWarning,0832.1,4.99,000.00,029.4,027.0,000.0,038.0,030.8,34.2,-000.1,0008.65,0012.99,0008.04
2023-07-10 05:57:00,SystemResetWarning,0832.1,5.00,000.00,029.5,027.3,000.0,038.0,030.8,34.2,-000.3,0008.60,0013.00,0007.99
2023-07-10 05:58:00,SystemResetWarning,0832.1,5.00,000.00,029.5,027.5,000.0,038.0,030.9,34.0,-000.3,0008.54,0012.87,0007.94
2023-07-10 05:59:00,SystemResetWarning,0832.1,5.00,000.00,029.5,027.7,000.0,038.0,030.9,34.0,-000.1,0008.45,0012.92,0007.88
